Date_and_time,latitude,longitude,wind_speed,RelWindDirFrom,WindDirFrom,air_pressure,air_temperature,relative_humidity,Temp,platform_speed_wrt_ground,air_pressure_at_mean_sea_level,platform_orientation
2019-08-20 23:40,50.63045,-96.9807866666667,9.6,17.8,290,989.55,21.2,28,21.14,0.0,1015.43,270.0
2019-08-20 23:50,50.63045,-96.980785,10.6,17.9,293,989.48,21.0,29,21.12,0.0,1015.37,270.0
2019-08-21 00:00,50.63045,-96.9807866666667,9.0,16.3,294,989.50,21.1,30,21.11,0.0,1015.37,347.4
2019-08-21 00:10,50.63045,-96.9807833333333,9.9,17.3,282,989.60,20.9,30,21.09,0.0,1015.49,347.4
2019-08-21 00:20,50.63045,-96.9807816666667,8.5,13.9,277,989.72,20.9,31,21.07,0.0,1015.61,347.4
2019-08-21 00:30,50.6304516666667,-96.9807833333333,7.9,15.2,284,989.71,20.9,31,21.06,0.0,1015.60,347.4
2019-08-21 00:40,50.6304516666667,-96.9807816666667,8.4,14.0,291,989.66,20.6,32,21.04,0.0,1015.56,347.4
2019-08-21 00:50,50.6304533333333,-96.9807816666667,7.7,14.1,302,989.66,20.4,33,21.00,0.0,1015.57,347.4
2019-08-21 01:00,50.6304533333333,-96.98078,6.0,9.3,295,989.68,20.0,33,20.97,0.0,1015.61,299.2
2019-08-21 01:10,50.6304533333333,-96.98078,4.6,7.6,295,989.70,19.8,34,20.94,0.0,1015.65,299.2
2019-08-21 01:20,50.6304533333333,-96.98078,4.4,6.4,299,989.72,19.5,35,20.92,0.0,1015.67,299.2
2019-08-21 01:30,50.6304533333333,-96.98078,3.9,6.7,292,989.73,19.2,36,20.89,0.0,1015.70,299.2
2019-08-21 01:40,50.6304533333333,-96.98078,3.7,5.5,283,989.75,18.8,37,20.88,0.0,1015.75,299.2
2019-08-21 01:50,50.6304533333333,-96.98078,3.6,5.3,286,989.74,18.4,39,20.86,0.0,1015.76,299.2
2019-08-21 02:00,50.6304533333333,-96.9807783333333,3.0,5.1,279,989.80,18.2,40,20.85,0.0,1015.84,90.0
2019-08-21 02:10,50.630455,-96.980785,2.5,4.1,262,989.87,17.8,41,20.85,0.0,1015.92,90.0
2019-08-21 02:20,50.6304516666667,-96.9807866666667,1.9,3.6,274,989.92,17.6,42,20.84,0.0,1015.98,90.0
2019-08-21 02:30,50.6304466666667,-96.980775,2.3,3.8,269,989.94,17.4,43,20.82,0.0,1016.02,90.0
2019-08-21 02:40,50.6304433333333,-96.9807783333333,2.5,3.6,251,989.96,17.1,44,20.80,0.0,1016.07,90.0
2019-08-21 02:50,50.6304416666667,-96.9807733333333,3.0,4.0,232,989.93,16.7,47,20.77,0.0,1016.07,90.0
2019-08-21 03:00,50.6304433333333,-96.9807733333333,4.0,4.7,224,989.88,16.1,48,20.77,0.0,1016.06,137.2
2019-08-21 03:10,50.630445,-96.980775,4.5,5.8,229,989.90,15.7,49,20.76,0.0,1016.11,137.2
2019-08-21 03:20,50.63043,-96.98076,4.4,5.9,237,989.97,15.5,49,20.74,0.0,1016.20,137.2
2019-08-21 03:30,50.6304533333333,-96.9807666666667,4.4,6.0,235,990.02,15.3,50,20.73,0.0,1016.29,137.2
2019-08-21 03:40,50.63046,-96.9807733333333,4.6,6.6,229,990.05,15.2,51,20.73,0.0,1016.34,137.2
2019-08-21 03:50,50.6304583333333,-96.980775,4.9,6.8,243,990.15,14.9,51,20.72,0.0,1016.46,137.2
2019-08-21 04:00,50.6304583333333,-96.9807733333333,4.6,6.5,251,990.12,14.7,52,20.70,0.0,1016.46,54.7
2019-08-21 04:10,50.6304583333333,-96.980775,4.6,7.6,251,990.14,14.4,53,20.68,0.0,1016.51,54.7
2019-08-21 04:20,50.6304566666667,-96.980775,4.2,6.2,257,990.16,14.3,53,20.67,0.0,1016.54,54.7
2019-08-21 04:30,50.6304566666667,-96.980775,4.0,6.4,259,990.20,14.2,54,20.66,0.0,1016.59,54.7
2019-08-21 04:40,50.6304566666667,-96.980775,7.9,16.6,310,990.39,14.6,52,20.66,0.0,1016.79,54.7
2019-08-21 04:50,50.6304566666667,-96.9807766666667,7.1,9.9,316,990.43,15.1,52,20.65,0.0,1016.84,54.7
2019-08-21 05:00,50.6304566666667,-96.9807766666667,6.1,8.9,313,990.46,15.1,53,20.63,0.0,1016.89,90.0
2019-08-21 05:10,50.6304566666667,-96.9807766666667,3.8,5.6,301,990.34,14.8,53,20.61,0.0,1016.79,90.0
2019-08-21 05:20,50.6304866666667,-96.98077,3.7,5.6,294,990.29,14.6,54,20.61,0.0,1016.76,90.0
2019-08-21 05:30,50.6304483333333,-96.9807733333333,4.1,6.2,288,990.23,14.4,55,20.61,0.0,1016.71,90.0
2019-08-21 05:40,50.630455,-96.9807783333333,3.5,5.8,269,990.19,14.3,55,20.58,0.0,1016.68,90.0
2019-08-21 05:50,50.6304566666667,-96.9807783333333,4.4,6.5,266,990.34,14.1,56,20.57,0.0,1016.86,90.0
2019-08-21 06:00,50.6304583333333,-96.9807816666667,5.1,7.1,269,990.50,13.9,57,20.56,0.0,1017.04,356.8
2019-08-21 06:10,50.6304583333333,-96.9807816666667,4.4,7.2,280,990.57,14.0,57,20.57,0.0,1017.12,356.8
2019-08-21 06:20,50.6304583333333,-96.9807933333333,4.1,5.9,276,990.65,14.1,58,20.58,0.0,1017.19,356.8
2019-08-21 06:30,50.63046,-96.9807816666667,5.3,8.5,297,990.69,14.6,57,20.56,0.0,1017.20,356.8
2019-08-21 06:40,50.6304566666667,-96.9807833333333,4.4,6.9,295,990.79,14.8,57,20.55,0.0,1017.27,356.8
2019-08-21 06:50,50.6304566666667,-96.980785,3.8,7.4,284,990.89,14.7,58,20.55,0.0,1017.38,356.8
2019-08-21 07:00,50.630455,-96.98078,3.6,6.1,270,990.98,14.4,60,20.56,0.0,1017.49,234.7
2019-08-21 07:10,50.63045,-96.9807766666667,3.6,6.1,270,990.95,14.2,61,20.55,0.0,1017.48,234.7
2019-08-21 07:20,50.63043,-96.9807616666667,3.9,7.2,268,990.90,14.0,61,20.54,0.0,1017.45,234.7
2019-08-21 07:30,50.6304433333333,-96.98077,4.6,6.9,265,990.93,13.9,61,20.52,0.0,1017.49,234.7
2019-08-21 07:40,50.6304466666667,-96.9807733333333,4.9,7.7,269,990.88,13.8,62,20.52,0.0,1017.46,234.7
2019-08-21 07:50,50.6304483333333,-96.980795,4.6,7.7,269,990.89,13.7,63,20.53,0.0,1017.47,234.7
2019-08-21 08:00,50.6304483333333,-96.9807916666667,4.7,7.5,270,990.93,13.6,63,20.52,0.0,1017.52,248.5
2019-08-21 08:10,50.6304466666667,-96.9807866666667,4.5,7.8,284,990.98,13.5,64,20.51,0.0,1017.57,248.5
2019-08-21 08:20,50.6304466666667,-96.980785,5.4,8.9,301,990.96,13.7,61,20.51,0.0,1017.52,248.5
2019-08-21 08:30,50.6304533333333,-96.9807316666667,5.1,7.5,302,990.88,13.8,60,20.50,0.0,1017.42,248.5
2019-08-21 08:40,50.6304433333333,-96.9807583333333,4.8,7.3,294,990.86,13.6,61,20.49,0.0,1017.41,248.5
2019-08-21 08:50,50.6304533333333,-96.9808066666667,4.9,8.1,299,990.90,13.5,61,20.47,0.0,1017.47,248.5
2019-08-21 09:00,50.6304533333333,-96.980785,5.3,9.0,292,990.98,13.3,62,20.46,0.0,1017.57,360.0
2019-08-21 09:10,50.63045,-96.9807666666667,6.3,9.4,292,990.94,13.1,62,20.44,0.0,1017.55,360.0
2019-08-21 09:20,50.63045,-96.9807766666667,6.3,10.5,306,990.85,13.2,60,20.42,0.0,1017.46,360.0
2019-08-21 09:30,50.6304533333333,-96.9807816666667,6.6,9.1,305,990.80,13.2,60,20.40,0.0,1017.42,360.0
2019-08-21 09:40,50.6304533333333,-96.9807766666667,6.2,10.1,301,990.89,13.0,60,20.39,0.0,1017.52,360.0
2019-08-21 09:50,50.630455,-96.9807783333333,5.1,8.2,292,991.01,12.8,62,20.38,0.0,1017.66,360.0
2019-08-21 10:00,50.630455,-96.9807766666667,5.4,8.0,285,991.01,12.4,63,20.36,0.0,1017.69,90.0
2019-08-21 10:10,50.63045,-96.9807416666667,4.7,8.1,276,991.00,12.1,65,20.35,0.0,1017.67,90.0
2019-08-21 10:20,50.6304483333333,-96.9807633333333,5.1,7.8,278,991.02,11.7,66,20.35,0.0,1017.71,90.0
2019-08-21 10:30,50.6304516666667,-96.9807983333333,5.1,7.8,285,991.09,11.5,67,20.34,0.0,1017.80,90.0
2019-08-21 10:40,50.6304533333333,-96.9807716666667,6.4,11.0,289,991.14,11.5,67,20.33,0.0,1017.86,90.0
2019-08-21 10:50,50.6304516666667,-96.98078,6.9,10.4,292,991.11,11.5,67,20.31,0.0,1017.84,90.0
2019-08-21 11:00,50.6304533333333,-96.9807816666667,6.7,10.4,289,990.99,11.3,68,20.30,0.0,1017.73,48.3
2019-08-21 11:10,50.630455,-96.98078,5.8,9.2,284,990.95,11.2,69,20.29,0.0,1017.69,48.3
2019-08-21 11:20,50.6304533333333,-96.9807766666667,6.2,9.5,285,990.94,11.0,70,20.27,0.0,1017.69,48.3
2019-08-21 11:30,50.6304533333333,-96.980775,5.9,8.9,275,991.04,10.6,72,20.25,0.0,1017.81,48.3
2019-08-21 11:40,50.6304516666667,-96.980775,5.6,8.9,273,991.05,10.1,74,20.22,0.0,1017.87,48.3
2019-08-21 11:50,50.6304516666667,-96.9807733333333,6.1,9.2,274,991.02,10.0,75,20.21,0.0,1017.86,48.3
2019-08-21 12:00,50.6304583333333,-96.9807716666667,6.4,9.9,277,991.06,10.0,75,20.20,0.0,1017.91,54.7
2019-08-21 12:10,50.6304583333333,-96.98077,7.2,11.2,287,991.14,10.3,74,20.18,0.0,1018.00,54.7
2019-08-21 12:20,50.6304583333333,-96.98077,7.2,11.7,291,991.25,10.4,74,20.17,0.0,1018.12,54.7
2019-08-21 12:30,50.6304566666667,-96.9807733333333,7.8,11.0,293,991.37,10.7,73,20.16,0.0,1018.22,54.7
2019-08-21 12:40,50.630455,-96.9807716666667,7.7,11.9,297,991.35,10.9,72,20.16,0.0,1018.19,54.7
2019-08-21 12:50,50.630455,-96.9807716666667,7.2,11.3,297,991.42,11.1,71,20.16,0.0,1018.27,54.7
2019-08-21 13:00,50.630455,-96.98077,6.9,11.0,302,991.49,11.3,71,20.16,0.0,1018.34,90.0
2019-08-21 13:10,50.630455,-96.9807683333333,7.4,10.2,312,991.49,11.9,69,20.14,0.0,1018.31,90.0
2019-08-21 13:20,50.6304533333333,-96.9807683333333,7.9,12.2,318,991.48,12.7,67,20.12,0.0,1018.28,90.0
2019-08-21 13:30,50.6304533333333,-96.9807683333333,8.0,13.4,323,991.58,13.2,65,20.09,0.0,1018.39,90.0
2019-08-21 13:40,50.6304533333333,-96.98077,8.6,13.0,321,991.66,13.4,64,20.08,0.0,1018.48,90.0
2019-08-21 13:50,50.6304533333333,-96.98077,9.3,14.4,329,991.67,13.4,65,20.09,0.0,1018.47,90.0
2019-08-21 14:00,50.6304533333333,-96.9807716666667,8.1,11.5,343,991.80,13.5,67,20.10,0.0,1018.60,90.0
2019-08-21 14:10,50.6304533333333,-96.98077,7.6,10.8,345,992.01,13.4,67,20.10,0.0,1018.81,90.0
2019-08-21 14:20,50.6304533333333,-96.9807716666667,6.4,9.6,342,992.24,13.4,68,20.09,0.0,1019.03,90.0
2019-08-21 14:30,50.6304483333333,-96.9807583333333,5.2,8.0,327,992.35,13.5,67,20.09,0.0,1019.13,90.0
2019-08-21 14:40,50.6304516666667,-96.9807716666667,7.1,10.7,313,992.45,13.3,65,20.06,0.0,1019.23,90.0
2019-08-21 14:50,50.63048,-96.9807683333333,5.4,8.2,313,992.49,13.4,65,20.03,0.0,1019.26,90.0
2019-08-21 15:00,50.6304516666667,-96.9807683333333,5.1,8.6,327,992.60,13.6,64,20.01,0.0,1019.33,131.7
2019-08-21 15:10,50.6304533333333,-96.9807766666667,4.9,9.3,307,992.72,13.8,62,20.00,0.0,1019.41,131.7
2019-08-21 15:20,50.63045,-96.980775,5.8,8.9,315,992.79,14.0,61,20.00,0.0,1019.45,131.7
2019-08-21 15:30,50.63045,-96.980775,5.7,10.0,301,992.88,14.2,59,20.00,0.0,1019.53,131.7
2019-08-21 15:40,50.6304533333333,-96.9807783333333,6.5,8.8,312,992.99,14.6,58,20.00,0.0,1019.62,131.7
2019-08-21 15:50,50.63046,-96.9807766666667,6.2,10.5,308,993.08,15.0,56,20.00,0.0,1019.69,131.7
2019-08-21 16:00,50.6304483333333,-96.980765,6.6,11.9,322,993.06,15.3,56,20.00,0.0,1019.65,142.0
2019-08-21 16:10,50.630445,-96.98077,6.5,9.3,323,992.94,15.4,55,20.01,0.0,1019.53,142.0
2019-08-21 16:20,50.630445,-96.9807716666667,6.4,9.4,320,992.94,15.6,54,20.01,0.0,1019.52,142.0
2019-08-21 16:30,50.6304316666667,-96.98078,4.9,7.3,348,993.06,15.9,55,20.01,0.0,1019.63,142.0
2019-08-21 16:40,50.6304466666667,-96.9807783333333,2.4,5.9,329,992.92,16.2,53,20.02,0.0,1019.47,142.0
2019-08-21 16:50,50.6304616666667,-96.98079,5.5,12.5,285,992.87,16.5,51,20.03,0.0,1019.39,142.0
2019-08-21 17:00,50.6304316666667,-96.9807933333333,4.9,8.8,301,992.80,16.7,50,20.05,0.0,1019.30,223.2
2019-08-21 17:10,50.6304516666667,-96.9807866666667,5.3,11.5,331,992.64,16.8,49,20.08,0.0,1019.13,223.2
2019-08-21 17:20,50.6304516666667,-96.980785,6.7,11.0,343,992.65,16.9,52,20.12,0.0,1019.12,223.2
2019-08-21 17:30,50.6304516666667,-96.9807833333333,4.5,10.1,307,992.64,16.9,47,20.14,0.0,1019.09,223.2
2019-08-21 17:40,50.6304616666667,-96.980795,5.6,11.7,320,992.57,17.4,47,20.15,0.0,1018.98,223.2
2019-08-21 17:50,50.6304383333333,-96.9807716666667,6.6,12.3,310,992.39,17.4,48,20.16,0.0,1018.78,223.2
2019-08-21 18:00,50.6304583333333,-96.9807583333333,3.9,7.9,324,992.45,17.6,48,20.17,0.0,1018.83,48.3
2019-08-21 18:10,50.630445,-96.98077,7.5,10.9,347,992.41,17.6,48,20.21,0.0,1018.78,48.3
2019-08-21 18:20,50.6304733333333,-96.98078,7.1,12.9,329,992.38,17.7,47,20.24,0.0,1018.73,48.3
2019-08-21 18:30,50.63045,-96.980715,6.9,11.9,307,992.45,17.8,44,20.27,0.0,1018.78,48.3
2019-08-21 18:40,50.6304566666667,-96.98078,5.3,9.0,281,992.53,18.0,44,20.29,0.0,1018.84,48.3
2019-08-21 18:50,50.6304533333333,-96.980785,5.9,9.6,308,992.54,18.0,44,20.29,0.0,1018.84,48.3
2019-08-21 19:00,50.6304516666667,-96.9807816666667,5.0,8.8,282,992.64,18.0,44,20.28,0.0,1018.94,293.6
2019-08-21 19:10,50.63045,-96.9807866666667,4.1,8.1,317,992.59,18.0,45,20.32,0.0,1018.89,293.6
2019-08-21 19:20,50.6304483333333,-96.9807866666667,4.5,6.5,318,992.59,17.9,45,20.34,0.0,1018.89,293.6
2019-08-21 19:30,50.63044,-96.9807733333333,5.3,8.4,303,992.57,17.9,44,20.31,0.0,1018.85,293.6
2019-08-21 19:40,50.6304483333333,-96.980775,6.0,9.4,306,992.49,17.9,44,20.34,0.0,1018.76,293.6
2019-08-21 19:50,50.6304566666667,-96.980775,5.1,8.0,305,992.40,18.0,43,20.35,0.0,1018.66,293.6
2019-08-21 20:00,50.63045,-96.98076,7.1,12.3,297,992.23,18.0,44,20.33,0.0,1018.48,49.4
2019-08-21 20:10,50.6304483333333,-96.9807766666667,6.9,10.6,326,992.15,18.2,45,20.31,0.0,1018.39,49.4
2019-08-21 20:20,50.6304483333333,-96.9807833333333,8.4,14.6,333,992.19,18.1,51,20.29,0.0,1018.43,49.4
2019-08-21 20:30,50.6304483333333,-96.9807883333333,14.0,17.3,4,992.17,17.6,63,20.29,0.0,1018.42,49.4
2019-08-21 20:40,50.6304483333333,-96.9807866666667,14.6,17.3,11,992.22,17.3,63,20.29,0.0,1018.49,49.4
2019-08-21 20:50,50.630445,-96.980785,14.0,16.7,11,992.32,17.1,64,20.29,0.0,1018.60,49.4
2019-08-21 21:00,50.6304583333333,-96.9807733333333,13.7,17.0,11,992.30,17.0,66,20.29,0.0,1018.59,270.0
2019-08-21 21:10,50.6304466666667,-96.9807833333333,13.4,16.7,9,992.24,16.7,70,20.27,0.0,1018.54,270.0
2019-08-21 21:20,50.6304683333333,-96.980785,13.7,17.1,7,992.21,16.5,77,20.24,0.0,1018.53,270.0
2019-08-21 21:30,50.630445,-96.98077,12.6,15.0,6,992.18,16.5,74,20.20,0.0,1018.49,270.0
2019-08-21 21:40,50.6304483333333,-96.9807766666667,10.9,15.0,357,992.12,16.7,71,20.20,0.0,1018.41,270.0
2019-08-21 21:50,50.6304466666667,-96.9807766666667,11.5,14.9,1,992.00,16.7,68,20.19,0.0,1018.28,270.0
2019-08-21 22:00,50.6304466666667,-96.9807783333333,10.1,13.4,352,991.91,16.8,67,20.18,0.0,1018.18,360.0
2019-08-21 22:10,50.6304466666667,-96.9807816666667,11.6,17.0,352,991.85,16.8,67,20.18,0.0,1018.13,360.0
2019-08-21 22:20,50.630455,-96.9807816666667,12.2,16.2,347,991.80,16.7,68,20.17,0.0,1018.11,360.0
2019-08-21 22:30,50.6304683333333,-96.980805,8.9,13.6,342,991.92,16.7,67,20.17,0.0,1018.24,360.0
2019-08-21 22:40,50.6304266666667,-96.9807783333333,9.6,14.5,352,991.93,17.2,63,20.15,0.0,1018.24,360.0
2019-08-21 22:50,50.6304566666667,-96.9807966666667,10.7,15.4,353,991.91,17.4,64,20.15,0.0,1018.21,360.0
2019-08-21 23:00,50.630455,-96.9807883333333,11.2,15.3,352,991.88,17.0,65,20.14,0.0,1018.22,270.0
2019-08-21 23:10,50.6304533333333,-96.9807883333333,10.3,14.3,349,991.94,16.8,67,20.15,0.0,1018.29,270.0
2019-08-21 23:20,50.6304533333333,-96.9807883333333,10.1,16.1,340,991.99,16.7,63,20.14,0.0,1018.35,270.0
2019-08-21 23:30,50.6304533333333,-96.9807883333333,10.2,16.2,333,992.11,16.4,69,20.12,0.0,1018.48,270.0
2019-08-21 23:40,50.6304533333333,-96.9807883333333,10.5,15.6,319,992.24,15.7,72,20.12,0.0,1018.64,270.0
2019-08-21 23:50,50.6304533333333,-96.9807866666667,8.7,13.3,319,992.29,15.0,76,20.10,0.0,1018.71,270.0
